AXY885S KIAD-LMML

Flight info

Callsign AXY885S
Flight time N/A
Altitude 39000
Route WOOLY2 SWANN DCT BROSS Q419 RBV Q430 ACK DCT TUSKY N265B NICSO/M082F390 DCT 48N050W 51N040W 53N030W 53N020W DCT MALOT/N0478F390 DCT GISTI/N0480F410 DCT LESLU DCT DOLUR DCT TERKU DCT KORER UM616 TUPAR DCT CNA DCT SECHE DCT SOVET DCT FJR DCT AMFAC DCT BATIV DCT PELOS DCT IPROM DCT SENTI DCT RATOK DCT UPLIT M732 GZO
Aircraft A343/H-SDE2E3FGHIJ4J5M1RWXY/LB1D1

Departure

Time 2026-05-01 12:26
Airport Washington Dulles International Airport (KIAD)

Arrival

Time N/A
Airport Malta International Airport (LMML)
Time Latitude Longitude Altitude Speed Heading
2026-05-01 11:52 38.96951 -77.45313 301 ft 0 kts 123°
2026-05-01 11:54 38.96958 -77.45306 300 ft 0 kts 123°
2026-05-01 12:13 38.96958 -77.45305 296 ft 0 kts 127°
2026-05-01 12:14 38.96956 -77.45305 301 ft 1 kts 135°
2026-05-01 12:14 38.96951 -77.45305 296 ft 1 kts 168°
2026-05-01 12:14 38.96942 -77.45312 297 ft 2 kts 212°
2026-05-01 12:14 38.96926 -77.45343 296 ft 7 kts 236°
2026-05-01 12:15 38.96893 -77.45417 297 ft 12 kts 245°
2026-05-01 12:15 38.96870 -77.45525 296 ft 12 kts 275°
2026-05-01 12:15 38.96909 -77.45605 296 ft 10 kts 300°
2026-05-01 12:15 38.96897 -77.45678 296 ft 8 kts 222°
2026-05-01 12:16 38.96843 -77.45691 297 ft 8 kts 181°
2026-05-01 12:16 38.96780 -77.45693 296 ft 10 kts 181°
2026-05-01 12:16 38.96710 -77.45694 295 ft 11 kts 180°
2026-05-01 12:16 38.96634 -77.45695 297 ft 12 kts 180°
2026-05-01 12:17 38.96551 -77.45696 295 ft 12 kts 180°
2026-05-01 12:17 38.96464 -77.45696 295 ft 13 kts 180°
2026-05-01 12:17 38.96368 -77.45697 299 ft 14 kts 180°
2026-05-01 12:17 38.96269 -77.45699 297 ft 14 kts 182°
2026-05-01 12:18 38.96167 -77.45701 295 ft 15 kts 181°
2026-05-01 12:18 38.96062 -77.45703 298 ft 15 kts 181°
2026-05-01 12:18 38.95954 -77.45705 296 ft 16 kts 180°
2026-05-01 12:18 38.95843 -77.45706 298 ft 16 kts 180°
2026-05-01 12:19 38.95730 -77.45707 296 ft 16 kts 180°
2026-05-01 12:19 38.95613 -77.45708 296 ft 17 kts 180°
2026-05-01 12:19 38.95494 -77.45709 297 ft 17 kts 180°
2026-05-01 12:19 38.95371 -77.45712 299 ft 18 kts 181°
2026-05-01 12:20 38.95246 -77.45715 297 ft 18 kts 181°
2026-05-01 12:20 38.95118 -77.45718 299 ft 19 kts 180°
2026-05-01 12:20 38.94986 -77.45719 300 ft 19 kts 180°
2026-05-01 12:20 38.94853 -77.45720 300 ft 19 kts 180°
2026-05-01 12:21 38.94718 -77.45722 299 ft 20 kts 180°
2026-05-01 12:21 38.94584 -77.45723 299 ft 20 kts 180°
2026-05-01 12:21 38.94447 -77.45725 297 ft 20 kts 180°
2026-05-01 12:21 38.94309 -77.45727 300 ft 20 kts 180°
2026-05-01 12:22 38.94171 -77.45729 301 ft 20 kts 180°
2026-05-01 12:22 38.94033 -77.45731 301 ft 18 kts 180°
2026-05-01 12:22 38.93907 -77.45732 300 ft 18 kts 181°
2026-05-01 12:22 38.93780 -77.45737 298 ft 18 kts 184°
2026-05-01 12:23 38.93658 -77.45771 301 ft 14 kts 195°
2026-05-01 12:23 38.93618 -77.45747 301 ft 6 kts 134°
2026-05-01 12:23 38.93596 -77.45683 300 ft 10 kts 110°
2026-05-01 12:23 38.93571 -77.45599 301 ft 5 kts 111°
2026-05-01 12:24 38.93550 -77.45549 296 ft 7 kts 134°
2026-05-01 12:24 38.93498 -77.45544 301 ft 9 kts 193°
2026-05-01 12:24 38.93420 -77.45578 298 ft 14 kts 205°
2026-05-01 12:24 38.93388 -77.45667 298 ft 12 kts 274°
2026-05-01 12:25 38.93398 -77.45712 301 ft 10 kts 288°
2026-05-01 12:25 38.93727 -77.46831 307 ft 119 kts 290°
2026-05-01 12:25 38.94071 -77.47995 314 ft 159 kts 291°
2026-05-01 12:26 38.94427 -77.49324 821 ft 160 kts 285°
2026-05-01 12:26 38.94722 -77.52455 1543 ft 188 kts 310°
2026-05-01 12:26 38.95908 -77.53275 1838 ft 211 kts 353°
2026-05-01 12:27 38.97403 -77.52787 2096 ft 239 kts 35°
2026-05-01 12:27 38.99106 -77.48990 3448 ft 255 kts 59°
2026-05-01 12:28 39.01464 -77.45591 5005 ft 260 kts 37°
2026-05-01 12:28 39.02929 -77.44213 5886 ft 262 kts 31°
2026-05-01 12:28 39.06067 -77.41761 7620 ft 268 kts 26°
2026-05-01 12:29 39.07710 -77.40583 8420 ft 272 kts 25°
2026-05-01 12:29 39.09057 -77.39639 9064 ft 276 kts 25°
2026-05-01 12:32 39.10337 -77.38754 9644 ft 279 kts 25°
2026-05-01 12:32 39.13916 -77.36320 10607 ft 309 kts 23°
2026-05-01 12:32 39.15886 -77.34986 10879 ft 330 kts 24°
2026-05-01 12:33 39.17973 -77.33565 11144 ft 348 kts 24°
2026-05-01 12:33 39.20141 -77.32088 11410 ft 365 kts 24°
2026-05-01 12:33 39.22383 -77.30434 11855 ft 378 kts 31°
2026-05-01 12:33 39.24302 -77.28028 12391 ft 394 kts 52°
2026-05-01 12:34 39.25671 -77.24924 13020 ft 402 kts 60°
2026-05-01 12:34 39.26921 -77.21654 13620 ft 408 kts 61°
2026-05-01 12:34 39.28191 -77.18339 14215 ft 414 kts 61°
2026-05-01 12:34 39.29480 -77.14992 14821 ft 419 kts 60°
2026-05-01 12:35 39.30796 -77.11598 15394 ft 425 kts 60°
2026-05-01 12:35 39.32042 -77.08107 15981 ft 431 kts 66°
2026-05-01 12:35 39.32814 -77.04337 16531 ft 440 kts 81°
2026-05-01 12:35 39.32883 -77.00374 17081 ft 445 kts 96°
2026-05-01 12:36 39.32265 -76.96441 17584 ft 449 kts 108°
2026-05-01 12:36 39.31384 -76.92610 18106 ft 453 kts 109°
2026-05-01 12:36 39.30460 -76.88689 18628 ft 458 kts 109°
2026-05-01 12:36 39.29535 -76.84719 19126 ft 463 kts 109°
2026-05-01 12:37 39.28610 -76.80719 19643 ft 467 kts 109°
2026-05-01 12:37 39.27677 -76.76675 20143 ft 472 kts 109°
2026-05-01 12:37 39.26736 -76.72596 20632 ft 476 kts 109°
2026-05-01 12:37 39.25787 -76.68485 21110 ft 480 kts 109°
2026-05-01 12:38 39.24824 -76.64329 21554 ft 485 kts 109°
2026-05-01 12:38 39.23854 -76.60142 22010 ft 489 kts 109°
2026-05-01 12:38 39.22877 -76.55932 22468 ft 492 kts 109°
2026-05-01 12:38 39.21889 -76.51685 22872 ft 496 kts 109°
2026-05-01 12:39 39.20892 -76.47408 23256 ft 500 kts 109°
2026-05-01 12:39 39.19899 -76.43147 23652 ft 504 kts 110°
2026-05-01 12:39 39.18886 -76.38813 24061 ft 507 kts 110°
2026-05-01 12:39 39.17859 -76.34436 24419 ft 511 kts 110°
2026-05-01 12:40 39.16826 -76.30039 24750 ft 515 kts 110°
2026-05-01 12:40 39.15782 -76.25603 25075 ft 519 kts 110°
2026-05-01 12:40 39.14730 -76.21139 25395 ft 523 kts 110°
2026-05-01 12:40 39.13662 -76.16622 25681 ft 528 kts 110°
2026-05-01 12:41 39.12589 -76.12085 25991 ft 531 kts 110°
2026-05-01 12:41 39.11670 -76.07435 26263 ft 540 kts 100°
2026-05-01 12:41 39.11545 -76.02657 26568 ft 543 kts 83°
2026-05-01 12:41 39.12315 -75.97906 26882 ft 542 kts 68°
2026-05-01 12:42 39.13745 -75.93429 27162 ft 539 kts 56°
2026-05-01 12:42 39.15895 -75.89552 27492 ft 527 kts 40°
2026-05-01 12:42 39.18599 -75.86442 27765 ft 517 kts 28°
2026-05-01 12:42 39.21614 -75.83995 28065 ft 511 kts 21°
2026-05-01 12:43 39.24682 -75.81660 28356 ft 515 kts 23°
2026-05-01 12:43 39.27665 -75.79005 28652 ft 524 kts 29°
2026-05-01 12:43 39.30522 -75.76051 28985 ft 529 kts 32°
2026-05-01 12:43 39.33330 -75.72938 29248 ft 533 kts 33°
2026-05-01 12:44 39.36119 -75.69769 29500 ft 536 kts 33°
2026-05-01 12:44 39.38919 -75.66586 29811 ft 535 kts 33°
2026-05-01 12:44 39.44528 -75.60283 30511 ft 533 kts 32°
2026-05-01 12:45 39.50164 -75.54040 31148 ft 532 kts 32°
2026-05-01 12:45 39.52984 -75.50926 31454 ft 533 kts 32°
2026-05-01 12:45 39.55777 -75.47843 31745 ft 533 kts 32°
2026-05-01 12:46 39.58599 -75.44726 32037 ft 533 kts 32°
2026-05-01 12:46 39.61423 -75.41599 32407 ft 531 kts 32°
2026-05-01 12:46 39.64229 -75.38487 32691 ft 530 kts 31°
2026-05-01 12:46 39.67033 -75.35375 32939 ft 531 kts 31°
2026-05-01 12:47 39.69830 -75.32270 33163 ft 532 kts 32°
2026-05-01 12:47 39.72639 -75.29149 33440 ft 531 kts 32°
2026-05-01 12:47 39.75445 -75.26026 33737 ft 530 kts 31°
2026-05-01 12:47 39.78220 -75.22870 34001 ft 533 kts 35°
2026-05-01 12:48 39.80809 -75.19363 34244 ft 539 kts 39°
2026-05-01 12:48 39.83298 -75.15783 34495 ft 539 kts 40°
2026-05-01 12:48 39.85767 -75.12144 34758 ft 539 kts 41°
2026-05-01 12:48 39.88228 -75.08469 35054 ft 538 kts 41°
2026-05-01 12:49 39.90681 -75.04789 35310 ft 537 kts 41°
2026-05-01 12:49 39.93124 -75.01127 35577 ft 536 kts 41°
2026-05-01 12:49 39.95566 -74.97459 35793 ft 536 kts 43°
2026-05-01 12:49 39.97827 -74.93553 35979 ft 541 kts 49°
2026-05-01 12:50 39.99968 -74.89512 36161 ft 542 kts 50°
2026-05-01 12:50 40.01357 -74.86830 36307 ft 542 kts 50°
2026-05-01 12:50 40.03447 -74.82739 36548 ft 541 kts 52°
2026-05-01 12:50 40.05510 -74.78656 36992 ft 534 kts 52°
2026-05-01 12:51 40.07545 -74.74621 37276 ft 532 kts 52°
2026-05-01 12:51 40.09583 -74.70590 37419 ft 533 kts 52°
2026-05-01 12:51 40.13671 -74.62521 37751 ft 532 kts 52°
2026-05-01 12:52 40.15710 -74.58489 37910 ft 532 kts 52°
2026-05-01 12:52 40.19658 -74.50327 38285 ft 533 kts 60°
2026-05-01 12:52 40.21142 -74.45874 38495 ft 534 kts 66°
2026-05-01 12:53 40.23678 -74.36738 38856 ft 533 kts 69°
2026-05-01 12:53 40.24878 -74.32149 38998 ft 533 kts 69°
2026-05-01 12:54 40.27257 -74.22950 39027 ft 531 kts 69°
2026-05-01 12:54 40.30800 -74.09305 39026 ft 529 kts 69°
2026-05-01 12:55 40.34366 -73.95590 39012 ft 530 kts 69°
2026-05-01 12:56 40.36742 -73.86439 39013 ft 530 kts 69°
2026-05-01 12:56 40.39104 -73.77276 39010 ft 529 kts 69°
2026-05-01 12:57 40.41460 -73.68118 39005 ft 529 kts 69°
2026-05-01 12:57 40.44968 -73.54426 39002 ft 529 kts 70°
2026-05-01 12:58 40.47308 -73.45255 39001 ft 529 kts 70°
2026-05-01 12:59 40.50791 -73.31483 38993 ft 529 kts 70°